GW1057 Weather Reports


Display with metric or nautical units.
time (UTC)temp
F
wind
direction
speed
MPH
gust
MPH
rain 1hr
in
rain 24hr
in
rain mn
in
humidity
%
barometer
mb
20260506013036 60 254 2.0 7.0 0.00 0.04 0.04 40 1008.0
20260506011538 60 249 4.0 10.0 0.00 0.04 0.04 39 1007.9
20260506010041 60 175 4.0 11.0 0.00 0.04 0.04 38 1007.9
20260506004546 61 202 5.0 15.0 0.00 0.04 0.04 35 1007.8
20260506003039 63 205 3.0 9.0 0.00 0.04 0.04 35 1007.5
20260506001534 63 215 2.0 16.0 0.01 0.04 0.04 36 1007.3
20260506000033 62 181 7.0 21.0 0.01 0.04 0.04 35 1007.1
20260505234533 62 215 5.0 18.0 0.01 0.04 0.04 40 1007.1
20260505233031 62 201 6.0 24.0 0.01 0.04 0.04 41 1007.2
20260505231530 63 200 7.0 17.0 0.00 0.03 0.03 40 1007.2
20260505230039 62 196 7.0 16.0 0.00 0.03 0.03 44 1007.3
20260505224533 62 202 4.0 12.0 0.00 0.03 0.03 45 1007.5
20260505223025 62 219 6.0 14.0 0.00 0.03 0.03 46 1007.5
20260505221524 63 198 3.0 11.0 0.00 0.03 0.03 49 1007.6
20260505220022 62 209 4.0 13.0 0.00 0.03 0.03 52 1007.8
20260505214523 63 246 5.0 11.0 0.00 0.03 0.03 54 1008.0
20260505213022 60 203 4.0 12.0 0.00 0.03 0.03 61 1008.3
20260505211523 58 200 4.0 10.0 0.00 0.03 0.03 64 1008.5
20260505210022 58 239 3.0 17.0 0.00 0.03 0.03 63 1008.5
20260505204522 62 192 2.0 9.0 0.00 0.03 0.03 52 1008.3
20260505203026 63 219 2.0 13.0 0.00 0.03 0.03 50 1008.6
20260505201519 64 222 2.0 18.0 0.00 0.03 0.03 49 1008.7
20260505200017 64 341 2.0 11.0 0.00 0.03 0.03 52 1008.9
20260505194516 63 200 2.0 12.0 0.00 0.03 0.03 52 1008.9
20260505193011 62 297 2.0 14.0 0.00 0.03 0.03 57 1009.0
20260505191510 61 258 3.0 8.0 0.00 0.03 0.03 58 1009.1
20260505190007 59 237 2.0 7.0 0.00 0.03 0.03 66 1009.3
20260505184510 57 264 1.0 14.0 0.00 0.03 0.03 65 1009.8
20260505183007 58 342 4.0 12.0 0.00 0.03 0.03 64 1009.6
20260505181504 58 273 3.0 9.0 0.00 0.03 0.03 69 1009.7
20260505180107 56 280 2.0 10.0 0.00 0.03 0.03 71 1009.8
20260505180000 56 207 1.0 10.0 0.00 0.03 0.03 71 1009.8
20260505174559 55 27 1.0 7.0 0.00 0.03 0.03 71 1009.8
20260505173100 55 306 1.0 6.0 0.00 0.03 0.03 72 1009.6
20260505171558 55 290 2.0 10.0 0.00 0.03 0.03 74 1009.5
20260505170054 54 176 3.0 9.0 0.00 0.03 0.03 76 1009.4
20260505164554 53 253 1.0 11.0 0.00 0.03 0.03 78 1009.3
20260505163052 51 205 0.0 9.0 0.00 0.03 0.03 80 1009.1
20260505161551 51 224 0.0 4.0 0.00 0.03 0.03 82 1009.1
20260505153101 49 300 2.0 6.0 0.01 0.03 0.03 85 1009.0
20260505151549 48 281 0.0 3.0 0.01 0.03 0.03 84 1008.9
20260505124544 45 30 3.0 9.0 0.02 0.02 0.02 81 1008.5
20260505123052 45 290 3.0 9.0 0.02 0.02 0.02 79 1009.3
20260505121539 46 300 3.0 11.0 0.01 0.01 0.01 78 1009.6
20260505120043 47 279 1.0 16.0 0.00 0.00 0.00 75 1009.1
20260505114533 49 300 5.0 23.0 0.00 0.00 0.00 71 1008.9
20260505113030 50 286 9.0 17.0 0.00 0.00 0.00 69 1008.8
20260505111532 50 302 4.0 14.0 0.00 0.00 0.00 75 1008.5
20260505101529 49 292 3.0 9.0 0.00 0.00 0.00 77 1008.5
20260505100029 49 319 2.0 5.0 0.00 0.00 0.00 77 1008.3
20260505094521 48 296 0.0 3.0 0.00 0.00 0.00 77 1008.9
20260505093020 48 269 0.0 8.0 0.00 0.00 0.00 76 1008.4
20260505091520 48 336 1.0 3.0 0.00 0.00 0.00 76 1008.6
20260505090016 49 309 0.0 0.0 0.00 0.00 0.00 75 1008.5
20260505084515 49 309 0.0 3.0 0.00 0.00 0.00 74 1008.5
20260505083018 49 323 0.0 3.0 0.00 0.00 0.00 74 1008.6
20260505081512 49 321 0.0 3.0 0.00 0.00 0.00 73 1008.9
20260505080017 50 313 1.0 4.0 0.00 0.00 0.00 72 1009.1
20260505074508 50 13 0.0 0.0 0.00 0.00 0.00 70 1009.3
20260505073059 50 13 0.0 2.0 0.00 0.00 0.00 70 1009.2
20260505071505 51 19 0.0 2.0 0.00 0.00 0.00 69 1009.1
20260505070004 51 321 0.0 3.0 0.00 0.00 0.00 68 1008.9
20260505064502 51 278 0.0 3.0 0.00 0.00 0.00 67 1009.2
20260505063101 51 278 0.0 4.0 0.00 0.00 0.00 67 1009.3
20260505061559 52 309 0.0 5.0 0.00 0.00 0.00 67 1008.8
20260505060100 52 329 1.0 4.0 0.00 0.00 0.00 66 1008.4
20260505054553 52 319 1.0 4.0 0.00 0.00 0.00 66 1008.9
20260505053052 52 360 1.0 4.0 0.00 0.00 0.00 65 1009.6
20260505051551 53 11 1.0 8.0 0.00 0.00 0.00 65 1009.8
20260505041554 54 325 6.0 13.0 0.00 0.00 0.00 61 1009.5
20260505040049 55 333 6.0 12.0 0.00 0.00 0.00 59 1009.7
20260505034548 55 319 5.0 16.0 0.00 0.00 0.00 57 1009.8
20260505033048 56 324 7.0 15.0 0.00 0.00 0.00 56 1009.7
20260505031547 56 304 6.0 14.0 0.00 0.00 0.00 54 1009.6
20260505030105 57 319 8.0 20.0 0.00 0.00 0.00 49 1009.1
20260505024549 58 74 9.0 15.0 0.00 0.00 0.00 47 1008.8
20260505023044 60 291 11.0 20.0 0.00 0.00 0.00 41 1008.7
20260505021544 62 315 7.0 16.0 0.00 0.00 0.00 35 1008.7
20260505020044 63 277 6.0 15.0 0.00 0.00 0.00 33 1008.5
20260505014603 63 317 2.0 13.0 0.00 0.00 0.00 33 1008.4